TimeCST,TemperatureF,Dew PointF,Humidity,Sea Level PressureIn,VisibilityMPH,Wind Direction,Wind SpeedMPH,Gust SpeedMPH,PrecipitationIn,Events,Conditions,WindDirDegrees,DateUTC
12:52 AM,39.0,32.0,76,30.34,7.0,SSE,11.5,-,N/A,,Clear,150,2012-11-18 06:52:00
1:52 AM,37.9,33.1,83,30.35,6.0,SSE,10.4,-,N/A,,Haze,160,2012-11-18 07:52:00
2:52 AM,37.9,33.1,83,30.34,6.0,SSE,11.5,-,N/A,,Haze,160,2012-11-18 08:52:00
3:52 AM,35.1,32.0,89,30.33,5.0,SSE,8.1,-,N/A,,Clear,150,2012-11-18 09:52:00
4:52 AM,34.0,30.9,89,30.33,5.0,SSE,8.1,-,N/A,,Clear,150,2012-11-18 10:52:00
5:52 AM,35.1,32.0,89,30.32,5.0,SSE,8.1,-,N/A,,Clear,150,2012-11-18 11:52:00
6:52 AM,34.0,30.9,89,30.32,5.0,SSE,8.1,-,N/A,,Clear,150,2012-11-18 12:52:00
7:52 AM,35.1,32.0,89,30.32,5.0,SE,8.1,-,N/A,,Clear,140,2012-11-18 13:52:00
8:52 AM,39.0,32.0,76,30.31,6.0,SSE,11.5,-,N/A,,Haze,160,2012-11-18 14:52:00
9:52 AM,43.0,32.0,65,30.31,7.0,SSE,10.4,-,N/A,,Clear,160,2012-11-18 15:52:00
10:52 AM,46.9,33.1,59,30.31,8.0,South,12.7,-,N/A,,Clear,180,2012-11-18 16:52:00
11:52 AM,48.9,34.0,56,30.29,9.0,SSE,11.5,-,N/A,,Clear,160,2012-11-18 17:52:00
12:52 PM,55.0,33.1,43,30.26,10.0,SSE,13.8,-,N/A,,Clear,160,2012-11-18 18:52:00
1:52 PM,55.9,33.1,42,30.25,10.0,SSE,11.5,-,N/A,,Clear,160,2012-11-18 19:52:00
2:52 PM,57.0,33.1,40,30.23,10.0,SSE,12.7,-,N/A,,Clear,160,2012-11-18 20:52:00
3:52 PM,53.1,32.0,45,30.23,10.0,SSE,10.4,-,N/A,,Clear,160,2012-11-18 21:52:00
4:52 PM,48.9,33.1,54,30.24,10.0,SE,6.9,-,N/A,,Clear,140,2012-11-18 22:52:00
5:52 PM,48.0,33.1,56,30.25,10.0,SSE,6.9,-,N/A,,Clear,150,2012-11-18 23:52:00
6:52 PM,48.0,32.0,54,30.25,10.0,SSE,10.4,-,N/A,,Clear,150,2012-11-19 00:52:00
7:52 PM,48.0,32.0,54,30.24,10.0,SSE,11.5,-,N/A,,Clear,150,2012-11-19 01:52:00
8:52 PM,48.0,33.1,56,30.23,10.0,SSE,12.7,19.6,N/A,,Clear,160,2012-11-19 02:52:00
9:52 PM,46.0,34.0,63,30.23,10.0,SSE,11.5,-,N/A,,Clear,160,2012-11-19 03:52:00
10:52 PM,45.0,34.0,65,30.22,10.0,SSE,10.4,-,N/A,,Clear,160,2012-11-19 04:52:00
11:52 PM,46.0,34.0,63,30.22,10.0,SSE,10.4,-,N/A,,Mostly Cloudy,160,2012-11-19 05:52:00